Location: La Fredeussais
(48.1780°N, 1.3980°W)
Time: 16:55:10
(UTC+00:00)

USA 308 - Pass Details

Date: 09 May 2021
Orbit: 568 x 576 km, 54.0° (Epoch: 10 May)

Event Time Altitude Azimuth Distance (km) Brightness Sun altitude
Rises 22:56:19 0° 297° (WNW) 2,787 7.1 -22.6°
Reaches altitude 10° 22:58:39 10° 291° (WNW) 1,886 6.0 -22.7°
Enters shadow 23:01:55 38° 250° (WSW) 884 3.7 -22.8°
